| time (UTC) | temp C | wind direction | speed KPH | gust KPH | rain 1hr cm | rain 24hr cm | rain mn cm | humidity % | barometer mb |
| 20260902125242 | 21 | 353 | 0.0 | 1.6 | 0.00 | 0.00 | 0.00 | 63 | 1015.0 |
| 20260902124738 | 20 | 26 | 0.0 | 0.0 | 0.00 | 0.00 | 0.00 | 63 | 1014.9 |
| 20260902124234 | 20 | 23 | 0.0 | 3.2 | 0.00 | 0.00 | 0.00 | 63 | 1014.6 |
| 20260902123729 | 20 | 4 | 3.2 | 3.2 | 0.00 | 0.00 | 0.00 | 63 | 1014.6 |
| 20260902123225 | 20 | 40 | 0.0 | 3.2 | 0.00 | 0.00 | 0.00 | 62 | 1014.5 |
| 20260902122723 | 21 | 29 | 1.6 | 3.2 | 0.00 | 0.00 | 0.00 | 60 | 1014.4 |
| 20260902122219 | 21 | 285 | 0.0 | 0.0 | 0.00 | 0.00 | 0.00 | 61 | 1014.5 |
| 20260902121714 | 21 | 348 | 0.0 | 0.0 | 0.00 | 0.00 | 0.00 | 60 | 1014.6 |
| 20260902121209 | 21 | 209 | 0.0 | 1.6 | 0.00 | 0.00 | 0.00 | 59 | 1014.4 |
| 20260902120705 | 21 | 234 | 0.0 | 3.2 | 0.00 | 0.00 | 0.00 | 59 | 1014.4 |
| 20260902120201 | 21 | 352 | 0.0 | 6.4 | 0.00 | 0.00 | 0.00 | 59 | 1014.5 |
| 20260902115701 | 21 | 0 | 0.0 | 0.0 | 0.00 | 0.00 | 0.00 | 58 | 1014.5 |
| 20260902115157 | 21 | 345 | 0.0 | 1.6 | 0.00 | 0.00 | 0.00 | 58 | 1014.2 |
| 20260902114653 | 21 | 334 | 0.0 | 1.6 | 0.00 | 0.00 | 0.00 | 58 | 1014.2 |
| 20260902114148 | 22 | 0 | 0.0 | 1.6 | 0.00 | 0.00 | 0.00 | 57 | 1014.1 |
| 20260902113643 | 22 | 294 | 0.0 | 0.0 | 0.00 | 0.00 | 0.00 | 56 | 1014.2 |
| 20260902113138 | 22 | 294 | 0.0 | 0.0 | 0.00 | 0.00 | 0.00 | 56 | 1014.3 |
| 20260902112632 | 22 | 270 | 0.0 | 0.0 | 0.00 | 0.00 | 0.00 | 56 | 1014.4 |
| 20260902112130 | 22 | 355 | 0.0 | 3.2 | 0.00 | 0.00 | 0.00 | 55 | 1014.2 |
| 20260902111625 | 22 | 0 | 0.0 | 3.2 | 0.00 | 0.00 | 0.00 | 57 | 1014.4 |
| 20260902111121 | 23 | 81 | 0.0 | 0.0 | 0.00 | 0.00 | 0.00 | 59 | 1014.5 |
| 20260902110617 | 23 | 81 | 0.0 | 0.0 | 0.00 | 0.00 | 0.00 | 60 | 1014.3 |
| 20260902110113 | 23 | 81 | 0.0 | 0.0 | 0.00 | 0.00 | 0.00 | 60 | 1014.3 |
| 20260902105612 | 23 | 78 | 0.0 | 3.2 | 0.00 | 0.00 | 0.00 | 60 | 1014.2 |
| 20260902105107 | 22 | 14 | 0.0 | 0.0 | 0.00 | 0.00 | 0.00 | 61 | 1014.2 |
| 20260902104602 | 22 | 165 | 0.0 | 0.0 | 0.00 | 0.00 | 0.00 | 61 | 1014.2 |
| 20260902104057 | 22 | 165 | 0.0 | 1.6 | 0.00 | 0.00 | 0.00 | 61 | 1014.2 |
| 20260902103552 | 22 | 63 | 0.0 | 0.0 | 0.00 | 0.00 | 0.00 | 59 | 1014.5 |
| 20260902103047 | 23 | 300 | 0.0 | 1.6 | 0.00 | 0.00 | 0.00 | 59 | 1014.2 |
| 20260902102544 | 23 | 8 | 0.0 | 0.0 | 0.00 | 0.00 | 0.00 | 59 | 1014.1 |
| 20260902102041 | 23 | 8 | 0.0 | 0.0 | 0.00 | 0.00 | 0.00 | 60 | 1014.3 |
| 20260902101536 | 22 | 8 | 0.0 | 3.2 | 0.00 | 0.00 | 0.00 | 59 | 1014.4 |
| 20260902101035 | 23 | 345 | 1.6 | 4.8 | 0.00 | 0.00 | 0.00 | 57 | 1014.1 |
| 20260902100534 | 25 | 172 | 0.0 | 0.0 | 0.00 | 0.00 | 0.00 | 56 | 1014.3 |
| 20260902100034 | 25 | 165 | 0.0 | 1.6 | 0.00 | 0.00 | 0.00 | 56 | 1014.1 |
| 20260902095534 | 25 | 164 | 3.2 | 4.8 | 0.00 | 0.00 | 0.00 | 56 | 1014.2 |
| 20260902095033 | 25 | 203 | 0.0 | 1.6 | 0.00 | 0.00 | 0.00 | 56 | 1014.1 |
| 20260902094529 | 25 | 261 | 0.0 | 0.0 | 0.00 | 0.00 | 0.00 | 56 | 1014.1 |
| 20260902094025 | 25 | 187 | 0.0 | 1.6 | 0.00 | 0.00 | 0.00 | 56 | 1014.1 |
| 20260902093519 | 25 | 261 | 0.0 | 3.2 | 0.00 | 0.00 | 0.00 | 55 | 1014.2 |
| 20260902093019 | 26 | 216 | 0.0 | 3.2 | 0.00 | 0.00 | 0.00 | 53 | 1014.2 |
| 20260902092514 | 26 | 173 | 1.6 | 6.4 | 0.00 | 0.00 | 0.00 | 53 | 1014.2 |
| 20260902092009 | 26 | 200 | 1.6 | 4.8 | 0.00 | 0.00 | 0.00 | 53 | 1014.2 |
| 20260902091504 | 26 | 145 | 1.6 | 4.8 | 0.00 | 0.00 | 0.00 | 53 | 1014.4 |
| 20260902091000 | 26 | 180 | 1.6 | 4.8 | 0.00 | 0.00 | 0.00 | 53 | 1014.1 |
| 20260902090455 | 26 | 194 | 3.2 | 6.4 | 0.00 | 0.00 | 0.00 | 54 | 1014.3 |
| 20260902085954 | 26 | 180 | 4.8 | 4.8 | 0.00 | 0.00 | 0.00 | 54 | 1014.2 |
| 20260902085449 | 25 | 183 | 3.2 | 4.8 | 0.00 | 0.00 | 0.00 | 55 | 1014.2 |
| 20260902084944 | 25 | 148 | 3.2 | 3.2 | 0.00 | 0.00 | 0.00 | 55 | 1014.3 |
| 20260902084441 | 25 | 151 | 0.0 | 3.2 | 0.00 | 0.00 | 0.00 | 56 | 1014.2 |
| 20260902083931 | 25 | 81 | 0.0 | 0.0 | 0.00 | 0.00 | 0.00 | 55 | 1014.4 |
| 20260902083430 | 25 | 74 | 0.0 | 1.6 | 0.00 | 0.00 | 0.00 | 54 | 1014.4 |
| 20260902082925 | 25 | 184 | 3.2 | 6.4 | 0.00 | 0.00 | 0.00 | 54 | 1014.1 |
| 20260902082421 | 25 | 170 | 3.2 | 6.4 | 0.00 | 0.00 | 0.00 | 54 | 1014.3 |
| 20260902081918 | 25 | 168 | 0.0 | 4.8 | 0.00 | 0.00 | 0.00 | 54 | 1014.3 |
| 20260902081414 | 25 | 175 | 3.2 | 6.4 | 0.00 | 0.00 | 0.00 | 53 | 1014.4 |
| 20260902080908 | 25 | 151 | 0.0 | 4.8 | 0.00 | 0.00 | 0.00 | 53 | 1014.6 |
| 20260902080404 | 25 | 102 | 0.0 | 3.2 | 0.00 | 0.00 | 0.00 | 52 | 1014.3 |
| 20260902075903 | 25 | 81 | 0.0 | 4.8 | 0.00 | 0.00 | 0.00 | 52 | 1014.2 |
| 20260902075400 | 25 | 150 | 0.0 | 3.2 | 0.00 | 0.00 | 0.00 | 52 | 1014.3 |
| 20260902074855 | 26 | 145 | 0.0 | 3.2 | 0.00 | 0.00 | 0.00 | 53 | 1014.3 |
| 20260902074351 | 26 | 157 | 0.0 | 4.8 | 0.00 | 0.00 | 0.00 | 52 | 1014.5 |
| 20260902073845 | 26 | 177 | 0.0 | 6.4 | 0.00 | 0.00 | 0.00 | 52 | 1014.4 |
| 20260902073342 | 26 | 176 | 3.2 | 6.4 | 0.00 | 0.00 | 0.00 | 51 | 1014.4 |
| 20260902072838 | 26 | 166 | 1.6 | 4.8 | 0.00 | 0.00 | 0.00 | 51 | 1014.2 |
| 20260902072333 | 26 | 184 | 6.4 | 6.4 | 0.00 | 0.00 | 0.00 | 50 | 1014.2 |
| 20260902071830 | 27 | 183 | 4.8 | 8.0 | 0.00 | 0.00 | 0.00 | 50 | 1014.4 |
| 20260902071324 | 27 | 138 | 4.8 | 9.7 | 0.00 | 0.00 | 0.00 | 49 | 1014.1 |
| 20260902070821 | 26 | 155 | 8.0 | 8.0 | 0.00 | 0.00 | 0.00 | 49 | 1014.3 |
| 20260902070320 | 26 | 195 | 3.2 | 4.8 | 0.00 | 0.00 | 0.00 | 49 | 1014.2 |
| 20260902065819 | 26 | 175 | 3.2 | 4.8 | 0.00 | 0.00 | 0.00 | 48 | 1014.5 |
| 20260902065314 | 26 | 202 | 3.2 | 6.4 | 0.00 | 0.00 | 0.00 | 48 | 1014.2 |
| 20260902064810 | 26 | 180 | 3.2 | 6.4 | 0.00 | 0.00 | 0.00 | 48 | 1014.1 |
| 20260902064306 | 26 | 184 | 0.0 | 4.8 | 0.00 | 0.00 | 0.00 | 47 | 1014.1 |
| 20260902063801 | 26 | 180 | 1.6 | 4.8 | 0.00 | 0.00 | 0.00 | 47 | 1014.1 |
| 20260902063255 | 27 | 178 | 6.4 | 6.4 | 0.00 | 0.00 | 0.00 | 46 | 1013.9 |
| 20260902062755 | 26 | 165 | 6.4 | 6.4 | 0.00 | 0.00 | 0.00 | 47 | 1013.9 |
| 20260902062250 | 26 | 163 | 0.0 | 6.4 | 0.00 | 0.00 | 0.00 | 47 | 1013.7 |
| 20260902061749 | 25 | 164 | 4.8 | 6.4 | 0.00 | 0.00 | 0.00 | 48 | 1013.9 |
| 20260902061245 | 25 | 148 | 0.0 | 3.2 | 0.00 | 0.00 | 0.00 | 48 | 1014.2 |
| 20260902060742 | 25 | 162 | 3.2 | 4.8 | 0.00 | 0.00 | 0.00 | 48 | 1014.1 |
| 20260902060237 | 25 | 143 | 3.2 | 6.4 | 0.00 | 0.00 | 0.00 | 48 | 1014.1 |
| 20260902055732 | 26 | 163 | 3.2 | 4.8 | 0.00 | 0.00 | 0.00 | 45 | 1013.9 |
| 20260902055228 | 26 | 195 | 1.6 | 3.2 | 0.00 | 0.00 | 0.00 | 45 | 1013.9 |
| 20260902054723 | 26 | 15 | 0.0 | 0.0 | 0.00 | 0.00 | 0.00 | 44 | 1013.6 |
| 20260902054219 | 26 | 114 | 0.0 | 0.0 | 0.00 | 0.00 | 0.00 | 44 | 1013.8 |
| 20260902053714 | 26 | 66 | 0.0 | 1.6 | 0.00 | 0.00 | 0.00 | 44 | 1013.9 |
| 20260902053214 | 26 | 348 | 0.0 | 3.2 | 0.00 | 0.00 | 0.00 | 44 | 1013.8 |
| 20260902052713 | 26 | 6 | 1.6 | 4.8 | 0.00 | 0.00 | 0.00 | 44 | 1014.1 |
| 20260902052209 | 26 | 36 | 3.2 | 3.2 | 0.00 | 0.00 | 0.00 | 43 | 1013.9 |
| 20260902051708 | 27 | 8 | 0.0 | 1.6 | 0.00 | 0.00 | 0.00 | 43 | 1013.9 |
| 20260902051203 | 27 | 0 | 0.0 | 1.6 | 0.00 | 0.00 | 0.00 | 43 | 1014.2 |
| 20260902050657 | 26 | 23 | 0.0 | 0.0 | 0.00 | 0.00 | 0.00 | 44 | 1013.8 |
| 20260902050153 | 27 | 188 | 0.0 | 0.0 | 0.00 | 0.00 | 0.00 | 43 | 1014.1 |
| 20260902045647 | 27 | 188 | 0.0 | 3.2 | 0.00 | 0.00 | 0.00 | 43 | 1014.1 |
| 20260902045143 | 27 | 29 | 0.0 | 3.2 | 0.00 | 0.00 | 0.00 | 42 | 1014.2 |
| 20260902044638 | 27 | 117 | 0.0 | 4.8 | 0.00 | 0.00 | 0.00 | 42 | 1014.1 |
| 20260902044134 | 27 | 0 | 0.0 | 0.0 | 0.00 | 0.00 | 0.00 | 42 | 1014.2 |
| 20260902043629 | 27 | 0 | 0.0 | 0.0 | 0.00 | 0.00 | 0.00 | 41 | 1014.2 |
| 20260902043124 | 28 | 0 | 0.0 | 3.2 | 0.00 | 0.00 | 0.00 | 41 | 1014.1 |
| 20260902042623 | 28 | 8 | 1.6 | 1.6 | 0.00 | 0.00 | 0.00 | 41 | 1014.5 |
| 20260902042119 | 28 | 81 | 0.0 | 1.6 | 0.00 | 0.00 | 0.00 | 41 | 1014.2 |
| 20260902041618 | 28 | 0 | 3.2 | 6.4 | 0.00 | 0.00 | 0.00 | 42 | 1013.8 |
| 20260902041113 | 27 | 342 | 0.0 | 4.8 | 0.00 | 0.00 | 0.00 | 42 | 1014.1 |
| 20260902040608 | 27 | 0 | 0.0 | 1.6 | 0.00 | 0.00 | 0.00 | 42 | 1013.9 |
| 20260902040103 | 27 | 15 | 0.0 | 0.0 | 0.00 | 0.00 | 0.00 | 42 | 1014.1 |
| 20260902035601 | 27 | 15 | 0.0 | 0.0 | 0.00 | 0.00 | 0.00 | 42 | 1013.9 |
| 20260902035056 | 27 | 15 | 0.0 | 0.0 | 0.00 | 0.00 | 0.00 | 43 | 1013.7 |
| 20260902034555 | 27 | 15 | 0.0 | 0.0 | 0.00 | 0.00 | 0.00 | 43 | 1013.9 |
| 20260902034055 | 28 | 15 | 0.0 | 0.0 | 0.00 | 0.00 | 0.00 | 42 | 1013.8 |
| 20260902033554 | 28 | 15 | 0.0 | 1.6 | 0.00 | 0.00 | 0.00 | 42 | 1013.7 |
| 20260902033049 | 28 | 352 | 0.0 | 3.2 | 0.00 | 0.00 | 0.00 | 43 | 1013.7 |
| 20260902032548 | 28 | 352 | 0.0 | 1.6 | 0.00 | 0.00 | 0.00 | 43 | 1013.3 |
| 20260902032043 | 28 | 353 | 0.0 | 0.0 | 0.00 | 0.00 | 0.00 | 42 | 1013.6 |
| 20260902031538 | 28 | 353 | 0.0 | 4.8 | 0.00 | 0.00 | 0.00 | 42 | 1013.5 |
| 20260902031034 | 28 | 351 | 6.4 | 6.4 | 0.00 | 0.00 | 0.00 | 41 | 1013.4 |
| 20260902030529 | 28 | 8 | 4.8 | 4.8 | 0.00 | 0.00 | 0.00 | 41 | 1013.3 |
| 20260902030028 | 29 | 12 | 3.2 | 4.8 | 0.00 | 0.00 | 0.00 | 41 | 1013.3 |
| 20260902025523 | 29 | 24 | 3.2 | 4.8 | 0.00 | 0.00 | 0.00 | 41 | 1013.0 |
| 20260902025018 | 30 | 0 | 3.2 | 4.8 | 0.00 | 0.00 | 0.00 | 41 | 1013.1 |
| 20260902024514 | 30 | 7 | 1.6 | 3.2 | 0.00 | 0.00 | 0.00 | 41 | 1013.0 |
| 20260902024008 | 30 | 351 | 3.2 | 3.2 | 0.00 | 0.00 | 0.00 | 41 | 1013.0 |
| 20260902023504 | 30 | 14 | 1.6 | 3.2 | 0.00 | 0.00 | 0.00 | 40 | 1013.0 |
| 20260902023004 | 30 | 15 | 0.0 | 3.2 | 0.00 | 0.00 | 0.00 | 40 | 1013.0 |
| 20260902022458 | 30 | 70 | 0.0 | 4.8 | 0.00 | 0.00 | 0.00 | 40 | 1013.1 |
| 20260902021954 | 30 | 53 | 3.2 | 4.8 | 0.00 | 0.00 | 0.00 | 40 | 1012.9 |
| 20260902021449 | 30 | 60 | 3.2 | 6.4 | 0.00 | 0.00 | 0.00 | 39 | 1012.7 |
| 20260902020944 | 30 | 48 | 3.2 | 4.8 | 0.00 | 0.00 | 0.00 | 39 | 1012.3 |
| 20260902020440 | 30 | 45 | 3.2 | 3.2 | 0.00 | 0.00 | 0.00 | 38 | 1012.3 |
| 20260902015936 | 30 | 32 | 3.2 | 4.8 | 0.00 | 0.00 | 0.00 | 38 | 1012.4 |
| 20260902015431 | 31 | 63 | 1.6 | 4.8 | 0.00 | 0.00 | 0.00 | 38 | 1012.4 |
| 20260902014926 | 31 | 23 | 4.8 | 4.8 | 0.00 | 0.00 | 0.00 | 37 | 1012.4 |
| 20260902014423 | 31 | 41 | 4.8 | 6.4 | 0.00 | 0.00 | 0.00 | 37 | 1012.0 |
| 20260902013922 | 31 | 10 | 6.4 | 9.7 | 0.00 | 0.00 | 0.00 | 37 | 1012.2 |
| 20260902013418 | 31 | 4 | 6.4 | 9.7 | 0.00 | 0.00 | 0.00 | 37 | 1012.1 |
| 20260902012913 | 31 | 346 | 8.0 | 8.0 | 0.00 | 0.00 | 0.00 | 37 | 1012.0 |
| 20260902012409 | 31 | 0 | 1.6 | 8.0 | 0.00 | 0.00 | 0.00 | 37 | 1012.2 |
| 20260902011904 | 31 | 19 | 8.0 | 9.7 | 0.00 | 0.00 | 0.00 | 37 | 1011.9 |
| 20260902011359 | 32 | 11 | 4.8 | 9.7 | 0.00 | 0.00 | 0.00 | 37 | 1012.1 |
| 20260902010858 | 32 | 8 | 0.0 | 11.3 | 0.00 | 0.00 | 0.00 | 36 | 1012.0 |
| 20260902010353 | 32 | 30 | 3.2 | 8.0 | 0.00 | 0.00 | 0.00 | 36 | 1012.1 |
| 20260902005853 | 32 | 21 | 8.0 | 14.5 | 0.00 | 0.00 | 0.00 | 36 | 1011.8 |
| 20260902005346 | 32 | 6 | 4.8 | 12.9 | 0.00 | 0.00 | 0.00 | 35 | 1011.9 |
| 20260902004842 | 32 | 15 | 12.9 | 14.5 | 0.00 | 0.00 | 0.00 | 34 | 1011.6 |
| 20260902004337 | 33 | 3 | 9.7 | 14.5 | 0.00 | 0.00 | 0.00 | 33 | 1011.8 |
| 20260902003832 | 33 | 12 | 6.4 | 14.5 | 0.00 | 0.00 | 0.00 | 33 | 1011.9 |
| 20260902003327 | 33 | 355 | 11.3 | 14.5 | 0.00 | 0.00 | 0.00 | 34 | 1011.5 |
| 20260902002823 | 33 | 17 | 11.3 | 14.5 | 0.00 | 0.00 | 0.00 | 34 | 1011.8 |
| 20260902002322 | 33 | 17 | 9.7 | 17.7 | 0.00 | 0.00 | 0.00 | 34 | 1011.5 |
| 20260902001817 | 33 | 18 | 11.3 | 20.9 | 0.00 | 0.00 | 0.00 | 34 | 1011.5 |
| 20260902001313 | 33 | 27 | 12.9 | 24.1 | 0.00 | 0.00 | 0.00 | 34 | 1011.5 |
| 20260902000812 | 33 | 0 | 17.7 | 22.5 | 0.00 | 0.00 | 0.00 | 33 | 1011.6 |
| 20260902000307 | 34 | 351 | 6.4 | 17.7 | 0.00 | 0.00 | 0.00 | 32 | 1011.5 |
| 20260901235803 | 34 | 354 | 0.0 | 11.3 | 0.00 | 0.00 | 0.00 | 30 | 1011.6 |
| 20260901235257 | 34 | 0 | 1.6 | 8.0 | 0.00 | 0.00 | 0.00 | 30 | 1011.4 |
| 20260901234756 | 34 | 357 | 8.0 | 11.3 | 0.00 | 0.00 | 0.00 | 30 | 1011.6 |
| 20260901234251 | 35 | 8 | 11.3 | 16.1 | 0.00 | 0.00 | 0.00 | 30 | 1011.4 |
| 20260901233746 | 34 | 2 | 11.3 | 17.7 | 0.00 | 0.00 | 0.00 | 30 | 1011.4 |
| 20260901233242 | 34 | 4 | 11.3 | 20.9 | 0.00 | 0.00 | 0.00 | 30 | 1011.4 |
| 20260901232742 | 34 | 4 | 20.9 | 25.7 | 0.00 | 0.00 | 0.00 | 30 | 1011.5 |
| 20260901232232 | 35 | 346 | 8.0 | 24.1 | 0.00 | 0.00 | 0.00 | 30 | 1011.3 |
| 20260901231728 | 34 | 343 | 4.8 | 20.9 | 0.00 | 0.00 | 0.00 | 30 | 1011.3 |
| 20260901231224 | 34 | 313 | 0.0 | 16.1 | 0.00 | 0.00 | 0.00 | 30 | 1011.3 |
| 20260901230720 | 34 | 354 | 6.4 | 11.3 | 0.00 | 0.00 | 0.00 | 29 | 1011.2 |
| 20260901230219 | 36 | 15 | 0.0 | 1.6 | 0.00 | 0.00 | 0.00 | 27 | 1011.1 |
| 20260901225714 | 36 | 353 | 0.0 | 4.8 | 0.00 | 0.00 | 0.00 | 27 | 1011.5 |
| 20260901225209 | 36 | 216 | 4.8 | 6.4 | 0.00 | 0.00 | 0.00 | 26 | 1011.6 |
| 20260901224705 | 37 | 192 | 1.6 | 4.8 | 0.00 | 0.00 | 0.00 | 24 | 1011.2 |
| 20260901224201 | 38 | 194 | 0.0 | 3.2 | 0.00 | 0.00 | 0.00 | 24 | 1011.6 |
| 20260901223657 | 36 | 161 | 3.2 | 8.0 | 0.00 | 0.00 | 0.00 | 26 | 1011.4 |
| 20260901223151 | 36 | 194 | 4.8 | 12.9 | 0.00 | 0.00 | 0.00 | 27 | 1011.4 |
| 20260901222647 | 37 | 246 | 4.8 | 11.3 | 0.00 | 0.00 | 0.00 | 26 | 1011.6 |
| 20260901222143 | 36 | 222 | 4.8 | 14.5 | 0.00 | 0.00 | 0.00 | 27 | 1011.3 |
| 20260901221639 | 36 | 199 | 4.8 | 12.9 | 0.00 | 0.00 | 0.00 | 28 | 1011.6 |
| 20260901221135 | 37 | 180 | 11.3 | 12.9 | 0.00 | 0.00 | 0.00 | 27 | 1011.9 |
| 20260901220634 | 37 | 201 | 3.2 | 8.0 | 0.00 | 0.00 | 0.00 | 27 | 1011.4 |
| 20260901220134 | 36 | 220 | 4.8 | 16.1 | 0.00 | 0.00 | 0.00 | 27 | 1011.4 |
| 20260901215632 | 36 | 252 | 11.3 | 14.5 | 0.00 | 0.00 | 0.00 | 27 | 1011.5 |
| 20260901215126 | 37 | 180 | 1.6 | 6.4 | 0.00 | 0.00 | 0.00 | 27 | 1011.6 |
| 20260901214624 | 36 | 157 | 3.2 | 19.3 | 0.00 | 0.00 | 0.00 | 28 | 1011.6 |
| 20260901214119 | 37 | 167 | 9.7 | 12.9 | 0.00 | 0.00 | 0.00 | 27 | 1011.8 |
| 20260901213619 | 36 | 159 | 9.7 | 16.1 | 0.00 | 0.00 | 0.00 | 28 | 1011.8 |
| 20260901213113 | 36 | 174 | 12.9 | 19.3 | 0.00 | 0.00 | 0.00 | 28 | 1011.8 |
| 20260901212608 | 36 | 187 | 6.4 | 11.3 | 0.00 | 0.00 | 0.00 | 28 | 1012.0 |
| 20260901212104 | 36 | 172 | 0.0 | 22.5 | 0.00 | 0.00 | 0.00 | 28 | 1011.9 |
| 20260901211559 | 35 | 193 | 8.0 | 20.9 | 0.00 | 0.00 | 0.00 | 29 | 1011.8 |
| 20260901211055 | 36 | 168 | 3.2 | 11.3 | 0.00 | 0.00 | 0.00 | 28 | 1011.8 |
| 20260901210550 | 36 | 90 | 1.6 | 14.5 | 0.00 | 0.00 | 0.00 | 28 | 1011.8 |
| 20260901210047 | 36 | 140 | 0.0 | 6.4 | 0.00 | 0.00 | 0.00 | 28 | 1012.0 |
| 20260901205542 | 35 | 175 | 12.9 | 12.9 | 0.00 | 0.00 | 0.00 | 28 | 1012.2 |
| 20260901205041 | 37 | 160 | 20.9 | 20.9 | 0.00 | 0.00 | 0.00 | 26 | 1012.1 |
| 20260901204538 | 37 | 168 | 6.4 | 20.9 | 0.00 | 0.00 | 0.00 | 26 | 1012.3 |
| 20260901204033 | 37 | 112 | 3.2 | 11.3 | 0.00 | 0.00 | 0.00 | 27 | 1012.3 |
| 20260901203527 | 36 | 178 | 4.8 | 16.1 | 0.00 | 0.00 | 0.00 | 28 | 1012.5 |
| 20260901203022 | 37 | 117 | 4.8 | 4.8 | 0.00 | 0.00 | 0.00 | 27 | 1012.7 |
| 20260901202517 | 36 | 157 | 4.8 | 9.7 | 0.00 | 0.00 | 0.00 | 28 | 1012.7 |
| 20260901202013 | 36 | 170 | 8.0 | 9.7 | 0.00 | 0.00 | 0.00 | 27 | 1013.0 |
| 20260901201508 | 36 | 182 | 6.4 | 20.9 | 0.00 | 0.00 | 0.00 | 28 | 1012.9 |
| 20260901201003 | 36 | 213 | 4.8 | 11.3 | 0.00 | 0.00 | 0.00 | 28 | 1013.2 |
| 20260901200457 | 36 | 229 | 9.7 | 14.5 | 0.00 | 0.00 | 0.00 | 28 | 1013.1 |
| 20260901195956 | 36 | 174 | 14.5 | 14.5 | 0.00 | 0.00 | 0.00 | 28 | 1013.3 |
| 20260901195455 | 36 | 162 | 3.2 | 6.4 | 0.00 | 0.00 | 0.00 | 29 | 1013.1 |
| 20260901194949 | 36 | 144 | 6.4 | 12.9 | 0.00 | 0.00 | 0.00 | 28 | 1013.2 |
| 20260901194444 | 36 | 191 | 9.7 | 11.3 | 0.00 | 0.00 | 0.00 | 28 | 1013.3 |
| 20260901193940 | 35 | 169 | 4.8 | 19.3 | 0.00 | 0.00 | 0.00 | 28 | 1013.4 |
| 20260901193440 | 36 | 156 | 4.8 | 9.7 | 0.00 | 0.00 | 0.00 | 27 | 1013.2 |
| 20260901192939 | 35 | 177 | 12.9 | 17.7 | 0.00 | 0.00 | 0.00 | 29 | 1013.1 |
| 20260901192435 | 36 | 240 | 11.3 | 11.3 | 0.00 | 0.00 | 0.00 | 28 | 1013.2 |
| 20260901191931 | 36 | 145 | 1.6 | 9.7 | 0.00 | 0.00 | 0.00 | 30 | 1013.7 |
| 20260901191427 | 35 | 187 | 6.4 | 16.1 | 0.00 | 0.00 | 0.00 | 30 | 1013.4 |
| 20260901190922 | 35 | 110 | 4.8 | 14.5 | 0.00 | 0.00 | 0.00 | 31 | 1013.7 |
| 20260901190422 | 36 | 113 | 8.0 | 8.0 | 0.00 | 0.00 | 0.00 | 30 | 1013.7 |
| 20260901185920 | 35 | 243 | 3.2 | 14.5 | 0.00 | 0.00 | 0.00 | 31 | 1013.7 |
| 20260901185420 | 35 | 155 | 8.0 | 12.9 | 0.00 | 0.00 | 0.00 | 31 | 1013.7 |
| 20260901184914 | 35 | 180 | 1.6 | 6.4 | 0.00 | 0.00 | 0.00 | 31 | 1013.8 |
| 20260901184410 | 35 | 186 | 14.5 | 14.5 | 0.00 | 0.00 | 0.00 | 32 | 1013.8 |
| 20260901183905 | 35 | 209 | 0.0 | 9.7 | 0.00 | 0.00 | 0.00 | 31 | 1013.9 |
| 20260901183405 | 34 | 166 | 11.3 | 14.5 | 0.00 | 0.00 | 0.00 | 32 | 1014.2 |
| 20260901182901 | 34 | 160 | 11.3 | 14.5 | 0.00 | 0.00 | 0.00 | 33 | 1014.4 |
| 20260901182355 | 34 | 169 | 4.8 | 12.9 | 0.00 | 0.00 | 0.00 | 34 | 1014.4 |
| 20260901181850 | 33 | 190 | 8.0 | 8.0 | 0.00 | 0.00 | 0.00 | 34 | 1014.6 |
| 20260901181345 | 34 | 197 | 4.8 | 8.0 | 0.00 | 0.00 | 0.00 | 34 | 1014.5 |
| 20260901180844 | 33 | 235 | 3.2 | 11.3 | 0.00 | 0.00 | 0.00 | 35 | 1014.4 |
| 20260901180343 | 33 | 194 | 4.8 | 9.7 | 0.00 | 0.00 | 0.00 | 35 | 1014.6 |
| 20260901175842 | 33 | 177 | 8.0 | 12.9 | 0.00 | 0.00 | 0.00 | 35 | 1014.8 |
| 20260901175337 | 33 | 135 | 3.2 | 11.3 | 0.00 | 0.00 | 0.00 | 35 | 1014.9 |
| 20260901174832 | 33 | 90 | 3.2 | 9.7 | 0.00 | 0.00 | 0.00 | 36 | 1015.0 |
| 20260901174328 | 33 | 243 | 6.4 | 9.7 | 0.00 | 0.00 | 0.00 | 37 | 1014.9 |
| 20260901173823 | 32 | 150 | 3.2 | 12.9 | 0.00 | 0.00 | 0.00 | 38 | 1014.9 |
| 20260901173318 | 32 | 202 | 6.4 | 8.0 | 0.00 | 0.00 | 0.00 | 38 | 1014.9 |
| 20260901172815 | 32 | 192 | 1.6 | 12.9 | 0.00 | 0.00 | 0.00 | 38 | 1015.1 |
| 20260901172314 | 32 | 189 | 3.2 | 19.3 | 0.00 | 0.00 | 0.00 | 39 | 1014.9 |
| 20260901171812 | 32 | 135 | 4.8 | 11.3 | 0.00 | 0.00 | 0.00 | 41 | 1015.1 |
| 20260901171311 | 31 | 180 | 8.0 | 17.7 | 0.00 | 0.00 | 0.00 | 41 | 1015.4 |
| 20260901170810 | 31 | 146 | 3.2 | 12.9 | 0.00 | 0.00 | 0.00 | 41 | 1015.3 |
| 20260901170305 | 32 | 171 | 11.3 | 12.9 | 0.00 | 0.00 | 0.00 | 40 | 1015.3 |
| 20260901165803 | 31 | 183 | 4.8 | 14.5 | 0.00 | 0.00 | 0.00 | 42 | 1015.5 |
| 20260901165258 | 31 | 214 | 8.0 | 14.5 | 0.00 | 0.00 | 0.00 | 43 | 1015.3 |
| 20260901164755 | 31 | 164 | 4.8 | 11.3 | 0.00 | 0.00 | 0.00 | 42 | 1015.4 |
| 20260901164250 | 31 | 179 | 9.7 | 16.1 | 0.00 | 0.00 | 0.00 | 42 | 1015.4 |
| 20260901163745 | 31 | 225 | 8.0 | 9.7 | 0.00 | 0.00 | 0.00 | 42 | 1015.5 |
| 20260901163245 | 31 | 120 | 3.2 | 9.7 | 0.00 | 0.00 | 0.00 | 44 | 1015.4 |
| 20260901162740 | 31 | 194 | 8.0 | 9.7 | 0.00 | 0.00 | 0.00 | 43 | 1015.4 |
| 20260901162239 | 30 | 135 | 4.8 | 9.7 | 0.00 | 0.00 | 0.00 | 45 | 1015.6 |
| 20260901161738 | 30 | 235 | 0.0 | 11.3 | 0.00 | 0.00 | 0.00 | 46 | 1015.3 |
| 20260901161233 | 30 | 191 | 8.0 | 12.9 | 0.00 | 0.00 | 0.00 | 46 | 1015.5 |
| 20260901160729 | 30 | 206 | 4.8 | 11.3 | 0.00 | 0.00 | 0.00 | 47 | 1015.3 |
| 20260901160225 | 30 | 144 | 3.2 | 9.7 | 0.00 | 0.00 | 0.00 | 47 | 1015.3 |
| 20260901155723 | 30 | 201 | 6.4 | 11.3 | 0.00 | 0.00 | 0.00 | 47 | 1015.3 |
| 20260901155218 | 29 | 214 | 8.0 | 14.5 | 0.00 | 0.00 | 0.00 | 48 | 1015.4 |
| 20260901154714 | 28 | 172 | 3.2 | 11.3 | 0.00 | 0.00 | 0.00 | 49 | 1015.5 |
| 20260901154208 | 28 | 186 | 1.6 | 20.9 | 0.00 | 0.00 | 0.00 | 49 | 1015.3 |
| 20260901153704 | 28 | 158 | 9.7 | 17.7 | 0.00 | 0.00 | 0.00 | 50 | 1015.6 |
| 20260901153157 | 28 | 156 | 6.4 | 9.7 | 0.00 | 0.00 | 0.00 | 49 | 1015.3 |
| 20260901152652 | 28 | 152 | 6.4 | 12.9 | 0.00 | 0.00 | 0.00 | 51 | 1015.4 |
| 20260901152151 | 28 | 227 | 9.7 | 14.5 | 0.00 | 0.00 | 0.00 | 52 | 1015.4 |
| 20260901151647 | 27 | 179 | 11.3 | 14.5 | 0.00 | 0.00 | 0.00 | 53 | 1015.7 |
| 20260901151146 | 27 | 188 | 11.3 | 24.1 | 0.00 | 0.00 | 0.00 | 53 | 1015.6 |
| 20260901150645 | 27 | 162 | 6.4 | 22.5 | 0.00 | 0.00 | 0.00 | 53 | 1015.6 |
| 20260901150143 | 27 | 194 | 4.8 | 14.5 | 0.00 | 0.00 | 0.00 | 53 | 1015.4 |
| 20260901145641 | 27 | 192 | 8.0 | 20.9 | 0.00 | 0.00 | 0.00 | 53 | 1015.3 |
| 20260901145136 | 27 | 190 | 8.0 | 19.3 | 0.00 | 0.00 | 0.00 | 54 | 1015.5 |
| 20260901144632 | 27 | 194 | 8.0 | 14.5 | 0.00 | 0.00 | 0.00 | 54 | 1015.6 |
| 20260901144127 | 27 | 194 | 8.0 | 11.3 | 0.00 | 0.00 | 0.00 | 55 | 1015.5 |
| 20260901143622 | 27 | 191 | 0.0 | 14.5 | 0.00 | 0.00 | 0.00 | 56 | 1015.7 |
| 20260901143118 | 26 | 180 | 6.4 | 11.3 | 0.00 | 0.00 | 0.00 | 55 | 1015.6 |
| 20260901142614 | 26 | 152 | 11.3 | 11.3 | 0.00 | 0.00 | 0.00 | 56 | 1015.6 |
| 20260901142113 | 26 | 152 | 8.0 | 11.3 | 0.00 | 0.00 | 0.00 | 56 | 1015.8 |
| 20260901141608 | 26 | 178 | 4.8 | 8.0 | 0.00 | 0.00 | 0.00 | 57 | 1015.8 |
| 20260901141103 | 26 | 191 | 6.4 | 8.0 | 0.00 | 0.00 | 0.00 | 57 | 1015.8 |
| 20260901140601 | 25 | 223 | 6.4 | 6.4 | 0.00 | 0.00 | 0.00 | 57 | 1015.7 |
| 20260901140056 | 25 | 180 | 3.2 | 8.0 | 0.00 | 0.00 | 0.00 | 58 | 1015.8 |
| 20260901135555 | 25 | 175 | 1.6 | 8.0 | 0.00 | 0.00 | 0.00 | 59 | 1015.7 |
| 20260901135050 | 25 | 150 | 3.2 | 6.4 | 0.00 | 0.00 | 0.00 | 59 | 1015.6 |
| 20260901134546 | 25 | 163 | 4.8 | 6.4 | 0.00 | 0.00 | 0.00 | 59 | 1015.6 |
| 20260901134041 | 24 | 105 | 0.0 | 3.2 | 0.00 | 0.00 | 0.00 | 60 | 1015.6 |
| 20260901133540 | 23 | 162 | 0.0 | 3.2 | 0.00 | 0.00 | 0.00 | 61 | 1015.6 |
| 20260901133039 | 23 | 160 | 0.0 | 1.6 | 0.00 | 0.00 | 0.00 | 61 | 1015.3 |
| 20260901132539 | 23 | 160 | 0.0 | 1.6 | 0.00 | 0.00 | 0.00 | 61 | 1015.5 |
| 20260901132039 | 23 | 172 | 0.0 | 0.0 | 0.00 | 0.00 | 0.00 | 62 | 1015.4 |
| 20260901131533 | 23 | 172 | 0.0 | 3.2 | 0.00 | 0.00 | 0.00 | 63 | 1015.1 |
| 20260901131028 | 22 | 180 | 1.6 | 4.8 | 0.00 | 0.00 | 0.00 | 63 | 1015.4 |
| 20260901130528 | 22 | 148 | 3.2 | 3.2 | 0.00 | 0.00 | 0.00 | 63 | 1015.1 |
| 20260901130027 | 22 | 175 | 1.6 | 3.2 | 0.00 | 0.00 | 0.00 | 63 | 1015.4 |
| 20260901125525 | 22 | 180 | 0.0 | 3.2 | 0.00 | 0.00 | 0.00 | 63 | 1015.4 |